Vilo Acuña International Airport

Jump to: basic info | weather | frequencies | runways | comments

Related pages: nearby airports | nearby navaids | notams | map

Basic information (top)

Codes: CYO MUCL
Location: lon 21.616501, lat -81.545998, elev 10 ft / 3 m msl
Status: medium_airport
Scheduled airline service: yes
Links: Wikipedia Mobile

Weather (top)

Current conditions (rec'd 2015/04/25 20:51Z):

MUCL 252051Z 17008KT 130V200 9000 SCT025 30/24 Q1011

Airport forecast (rec'd 2015/04/23 18:00Z):

TAF MUCL 231700Z 2318/2324 15010KT 9000 SCT020 
      TEMPO 2318/2324 4000 TSRA FEW012CB BKN015

Frequencies (top)

Verify before use: may be inaccurate or out of date.

A/G: 340.7 MHz (CAYO LARGO RDO)
APP: 120.1 MHz (CAYO LARGO APP)
TWR: 118.5 MHz (CAYO LARGO TWR)

Runways (top)

12/30: 9,869 x 148 ft (3,008 x 45 m) — paved — lighted

Latest comments (top)

No comments yet for Vilo Acuña International Airport

More... (top)

See also NOTAMs and nearby airports and navaids, or visit the Vilo Acuña International Airport page at the main OurAirports website..